#timestamp,LO_Frequency,Hit,StdDev 
1565722815.4,286047001.4,N
1565722835.2,286047002.3,N
1565722855.0,286047002.6,N
1565722855.9,286047002.6,Y
1565722875.8,286047002.7,P
1565722895.6,286047000.5,P
1565722915.4,286047001.1,N
1565722935.3,286047000.2,N
1565722955.1,286047000.1,N
1565722975.9,286047000.4,N
1565722995.7,286047001.9,N
1565723015.5,286047002.3,N
1565723035.4,286047004.0,Y
1565723055.2,286047001.4,P
1565723075.1,286047005.8,P
1565723076.0,286047005.8,N
1565723095.8,286047005.9,N
1565723115.6,286047003.3,N
1565723135.5,286047004.1,N
1565723155.3,286047001.6,N
1565723175.1,286047001.9,N
1565723195.9,286047001.5,N
1565723215.7,286047001.4,N
1565723235.6,286047002.0,N
1565723255.4,286047002.0,N
1565723275.2,286047003.6,N
1565723295.1,286047005.3,Y
1565723296.0,286047005.3,P
1565723315.8,286047004.1,P
1565723335.6,286047000.1,N
1565723355.5,286046999.8,N
1565723375.3,286047000.1,N
1565723395.2,286047000.9,N
1565723415.9,286046999.8,N
1565723435.7,286047001.2,N
1565723455.6,286047000.8,N
1565723475.4,286046999.7,N
1565723495.2,286046999.8,N
1565723515.1,286047001.6,N
1565723516.0,286047001.6,N
1565723535.8,286047002.4,N
1565723555.7,286047001.3,N
1565723575.5,286047003.8,N
1565723595.3,286047002.3,N
1565723615.2,286047002.1,N
1565723635.0,286047002.8,N
1565723635.9,286047002.8,N
1565723655.7,286047003.7,N
1565723675.6,286047004.2,N
1565723695.4,286047003.6,N
1565723715.3,286047006.9,Y
1565723735.1,286047005.3,P
1565723755.8,286047001.9,N
1565723775.7,286047003.5,N
1565723795.5,286047003.9,N
1565723815.3,286047002.1,N
1565723835.2,286047004.0,Y
1565723855.0,286047000.3,P
1565723855.9,286047000.3,N
1565723875.8,286047000.8,N
1565723895.6,286046998.6,N
1565723915.4,286047001.2,N
1565723935.3,286047002.7,N
1565723955.1,286047000.0,N
1565723975.9,286046999.7,N
1565723995.7,286047004.4,Y
1565724015.5,286047003.7,P
1565724035.4,286046999.8,N
1565724055.2,286047002.3,N
1565724075.0,286046998.2,N
1565724075.9,286046998.2,N
1565724095.8,286046999.9,N
1565724115.6,286047001.5,N
1565724135.5,286047002.9,N
1565724155.3,286047005.7,Y
1565724175.1,286047004.0,P
1565724195.9,286047002.8,N
1565724215.7,286047000.4,N
1565724235.5,286046998.8,N
1565724255.4,286047002.6,N
1565724275.2,286047000.0,N
1565724295.1,286046999.9,N
1565724296.0,286046999.9,N
1565724315.8,286047002.0,N
1565724335.6,286047000.1,N
1565724355.5,286046999.8,N
1565724375.3,286046999.9,N
1565724395.1,286047001.2,N
1565724415.9,286047001.2,N
1565724435.7,286046998.6,N
1565724455.6,286046998.2,N
1565724475.4,286047000.5,N
1565724495.2,286047000.5,N
1565724515.1,286047000.6,N
1565724516.0,286047000.6,N
1565724535.8,286047000.7,N
1565724555.6,286046999.2,N
1565724575.5,286046996.9,N
1565724595.3,286046996.6,N
1565724615.2,286046998.1,N
1565724635.9,286047000.0,N
1565724655.7,286046998.6,N
1565724675.6,286047001.2,N
1565724695.4,286046999.2,N
1565724715.2,286046995.4,N
1565724735.1,286046995.0,N
1565724736.0,286046995.0,N
1565724755.8,286046995.1,N
1565724775.7,286046995.2,N
1565724825.5,286046997.6,E
1565724835.5,286046996.7,N
1565724855.3,286046998.8,P
1565724875.1,286046997.0,N
1565724895.9,286046999.5,N
1565724915.7,286047001.1,N
1565724935.5,286046999.1,N
1565724955.4,286047000.9,N
1565724975.2,286046999.2,N
1565724995.1,286046997.3,N
1565724996.0,286046997.3,N
1565725015.8,286046995.3,Y
1565725035.6,286046999.3,P
1565725055.5,286047011.9,P
1565725075.3,286046997.1,N
1565725095.1,286046997.5,N
1565725115.9,286046997.4,N
1565725135.7,286046999.2,N
1565725155.6,286046997.8,N
1565725175.4,286046997.8,N
1565725195.2,286046997.1,N
1565725215.1,286046997.2,N
1565725216.0,286046997.2,N
1565725235.8,286046995.4,N
1565725255.7,286046995.0,N
1565725275.5,286046998.0,N
1565725295.3,286046995.0,N
1565725315.2,286046995.2,N
1565725335.9,286046998.8,N
1565725355.7,286046999.3,N
1565725375.6,286046996.7,N
1565725395.4,286046996.1,N
1565725415.3,286046997.7,N
1565725435.1,286046997.5,N
1565725436.0,286046997.5,N
1565725455.8,286046995.9,N
1565725475.7,286046995.6,N
1565725495.5,286046995.1,N
1565725515.3,286046994.9,N
1565725535.2,286046996.4,N
1565725555.0,286046995.9,N
1565725555.9,286046995.9,N
1565725575.8,286046996.3,N
1565725595.6,286046996.4,N
1565725615.4,286046995.7,Y
1565725635.3,286046999.2,P
1565725655.1,286046999.1,N
1565725675.8,286046998.5,N
1565725695.7,286046996.5,Y
1565725715.5,286047000.7,P
1565725735.4,286047000.0,N
1565725755.2,286047002.6,N
1565725775.0,286047005.7,Y
1565725775.9,286047005.7,P
1565725795.8,286047002.4,N
1565725815.6,286047000.7,N
1565725835.4,286046998.3,N
1565725855.3,286046999.0,N
1565725875.1,286046999.6,N
1565725895.9,286046998.1,N
1565725915.7,286046999.9,N
1565725935.5,286047002.2,N
1565725955.4,286047000.6,N
1565725975.2,286047002.4,N
1565725995.0,286047002.0,N
1565725995.9,286047002.0,N
1565726015.8,286047000.4,N
1565726035.6,286047000.3,N
1565726055.5,286047002.5,N
1565726075.3,286046999.7,N
1565726095.1,286047004.3,N
1565726115.9,286047003.9,N
1565726135.7,286047001.5,N
1565726155.5,286047004.3,N
1565726175.4,286047003.9,N
1565726195.2,286047003.9,N
1565726215.1,286047003.8,N
1565726216.0,286047003.8,N
1565726235.8,286047004.3,N
1565726255.6,286047003.9,N
1565726275.5,286047003.5,N
1565726295.3,286047003.5,N
1565726315.2,286047005.7,N
1565726335.9,286047003.5,N
1565726355.7,286047004.1,N
1565726375.6,286047003.0,N
1565726395.4,286047005.0,N
